Weather History for Wheeling, WV

Change the Weather History Date:

Friday, March 1, 2013

  Actual Average Record
Temperature  
Mean Temperature 29 °F 35 °F  
Max Temperature 32 °F 44 °F 63 °F (2004)
Min Temperature 26 °F 27 °F 14 °F (1949)
Degree Days  
Heating Degree Days 36 30  
Month to date heating degree days 36 30  
Since 1 July heating degree days 4048 4197  
Cooling Degree Days 0    
Month to date cooling degree days 0  
Year to date cooling degree days 0  
Moisture  
Dew Point 22 °F    
Average Humidity 72    
Maximum Humidity 85    
Minimum Humidity 58    
Precipitation  
Precipitation T in 0.06 in 0.65 in (2007)
Month to date precipitation T 0.06  
Sea Level Pressure  
Sea Level Pressure 29.92 in    
Wind  
Wind Speed 10 mph (NW)    
Max Wind Speed 17 mph    
Max Gust Speed 24 mph    
Visibility 9 miles    
Events Snow    
T = Trace of Precipitation, MM = Missing Value Source: NWS Daily Summary

Daily Weather History Graph

Daily Weather History Graph

Search for Another Location

Airport:

Trip Planner

Search our weather history database for the weather conditions in past years. The results will help you decide how hot, cold, wet, or windy it might be!

Date:

Astronomy

Mar. 01, 2013 Rise Set
Actual Time 6:55 AM EST 6:14 PM EST
Civil Twilight 6:28 AM EST 6:41 PM EST
Nautical Twilight 5:57 AM EST 7:13 PM EST
Astronomical Twilight 5:25 AM EST 7:44 PM EST
Moon 10:46 PM EST (3/1) 8:41 AM EST (3/1)
Length of Visible Light 12h 13m
Length of Day
11h 18m
Waning Gibbous, 83% of the Moon is Illuminated
Mar 1
Waning Gibbous
Mar 4
Last Quarter
Mar 11
New
Mar 19
First Quarter
Mar 27
Full

Hourly Weather History & Observations

Time (EST) Temp. Windchill Dew Point Humidity Pressure Visibility Wind Dir Wind Speed Gust Speed Precip Events Conditions
12:53 AM 30.9 °F 23.5 °F 27.0 °F 85% 29.87 in 7.0 mi WNW 8.1 mph - 0.00 in   Overcast
1:18 AM 30.2 °F 22.6 °F 26.6 °F 86% 29.83 in 10.0 mi WNW 8.1 mph - N/A   Overcast
2:11 AM 30.2 °F 22.6 °F 26.6 °F 86% 29.84 in 10.0 mi WNW 8.1 mph - N/A   Overcast
2:23 AM 30.2 °F 21.9 °F 26.6 °F 86% 29.84 in 10.0 mi NW 9.2 mph - N/A   Overcast
2:53 AM 30.9 °F 24.3 °F 26.1 °F 82% 29.88 in 10.0 mi NW 6.9 mph - N/A   Overcast
3:53 AM 30.0 °F 20.5 °F 25.0 °F 82% 29.88 in 10.0 mi NW 11.5 mph - N/A   Overcast
4:05 AM 30.2 °F 23.4 °F 24.8 °F 80% 29.83 in 10.0 mi NW 6.9 mph - N/A   Overcast
4:53 AM 30.0 °F 21.7 °F 24.1 °F 79% 29.88 in 10.0 mi NNW 9.2 mph - N/A   Overcast
5:05 AM 30.2 °F 24.3 °F 24.8 °F 80% 29.84 in 10.0 mi NW 5.8 mph - N/A   Overcast
5:53 AM 30.0 °F 21.7 °F 25.0 °F 82% 29.89 in 10.0 mi NW 9.2 mph - N/A   Overcast
8:16 AM 28.4 °F 19.7 °F 24.8 °F 86% 29.89 in 5.0 mi NW 9.2 mph - 0.00 in Snow Light Snow
8:29 AM 28.4 °F 20.4 °F 24.8 °F 86% 29.89 in 5.0 mi NW 8.1 mph - 0.00 in Snow Light Snow
9:13 AM 30.2 °F 21.9 °F 24.8 °F 80% 29.90 in 3.0 mi NW 9.2 mph - 0.00 in Snow Light Snow
9:24 AM 30.2 °F 22.6 °F 24.8 °F 80% 29.90 in 2.0 mi WNW 8.1 mph - 0.00 in Snow Light Snow
9:40 AM 28.4 °F 18.5 °F 24.8 °F 86% 29.90 in 4.0 mi NW 11.5 mph 16.1 mph 0.00 in Snow Light Snow
10:25 AM 30.2 °F 22.6 °F 23.0 °F 75% 29.90 in 10.0 mi WNW 8.1 mph - N/A   Overcast
10:53 AM 30.0 °F 19.5 °F 21.0 °F 69% 29.96 in 10.0 mi NW 13.8 mph 17.3 mph N/A   Overcast
11:53 AM 30.9 °F 21.2 °F 19.9 °F 64% 29.96 in 10.0 mi WNW 12.7 mph - N/A   Overcast
12:26 PM 30.2 °F 20.2 °F 19.4 °F 64% 29.91 in 10.0 mi West 12.7 mph 20.7 mph N/A   Overcast
12:33 PM 30.2 °F 21.3 °F 21.2 °F 69% 29.91 in 10.0 mi WNW 10.4 mph - N/A   Overcast
12:44 PM 30.2 °F 21.3 °F 21.2 °F 69% 29.91 in 10.0 mi NW 10.4 mph - N/A   Overcast
12:53 PM 30.9 °F 21.7 °F 19.9 °F 64% 29.95 in 10.0 mi NW 11.5 mph 20.7 mph N/A   Overcast
1:49 PM 30.2 °F 21.3 °F 19.4 °F 64% 29.90 in 10.0 mi West 10.4 mph - N/A   Overcast
1:53 PM 30.9 °F 21.7 °F 19.9 °F 64% 29.94 in 10.0 mi WNW 11.5 mph - N/A   Overcast
2:53 PM 30.9 °F 20.7 °F 18.0 °F 59% 29.94 in 10.0 mi WNW 13.8 mph - N/A   Overcast
3:25 PM 30.2 °F 20.8 °F 19.4 °F 64% 29.89 in 10.0 mi WNW 11.5 mph - N/A   Overcast
3:34 PM 30.2 °F 23.4 °F 19.4 °F 64% 29.89 in 10.0 mi WNW 6.9 mph - N/A   Overcast
4:31 PM 30.2 °F 21.9 °F 19.4 °F 64% 29.90 in 10.0 mi WNW 9.2 mph - N/A   Overcast
4:46 PM 30.2 °F 21.3 °F 19.4 °F 64% 29.90 in 10.0 mi NW 10.4 mph - N/A   Overcast
4:53 PM 30.0 °F 22.4 °F 19.9 °F 66% 29.95 in 10.0 mi NW 8.1 mph - N/A   Overcast
5:53 PM 30.0 °F 20.5 °F 19.9 °F 66% 29.96 in 10.0 mi NW 11.5 mph 17.3 mph N/A   Overcast
6:53 PM 28.9 °F 19.8 °F 21.0 °F 72% 29.97 in 9.0 mi WNW 10.4 mph - N/A   Overcast
7:00 PM 28.4 °F 19.7 °F 21.2 °F 74% 29.93 in 8.0 mi WNW 9.2 mph - N/A   Overcast
7:53 PM 28.0 °F 18.6 °F 21.0 °F 75% 29.99 in 10.0 mi WNW 10.4 mph - N/A   Overcast
8:53 PM 28.0 °F 18.6 °F 19.9 °F 72% 30.00 in 10.0 mi WNW 10.4 mph - N/A   Overcast
9:44 PM 28.4 °F 19.7 °F 19.4 °F 69% 29.96 in 10.0 mi NW 9.2 mph - N/A   Overcast
9:53 PM 28.0 °F 20.0 °F 19.0 °F 69% 30.01 in 10.0 mi NW 8.1 mph - N/A   Overcast
10:09 PM 26.6 °F 19.1 °F 19.4 °F 74% 29.96 in 8.0 mi NW 6.9 mph - 0.00 in Snow Light Snow
10:53 PM 27.0 °F 18.0 °F 18.0 °F 69% 30.01 in 10.0 mi NNW 9.2 mph - 0.00 in   Overcast
11:53 PM 26.1 °F 16.2 °F 17.1 °F 69% 29.99 in 10.0 mi NNW 10.4 mph - N/A   Overcast